This is the latest recevied weather packets stored in our database for station/object AI5BL. If no packets are shown the sender has not sent any weather packets the latest 10 day(s).
| Time | Temp. | Humidity | Pressure | Rain* | Wind** | Luminosity | Snow |
|---|---|---|---|---|---|---|---|
| 1788470850 | 34.44° C | 54% | 1015.1 hPa | 0 mm | - | 48 W/m² | - |
| 1788470546 | 34.44° C | 50% | 1015.1 hPa | 0 mm | - | 55 W/m² | - |
| 1788470245 | 34.44° C | 51% | 1015.3 hPa | 0 mm | - | 64 W/m² | - |
| 1788469942 | 35° C | 49% | 1015.3 hPa | 0 mm | - | 65 W/m² | - |
| 1788469638 | 35° C | 47% | 1015.4 hPa | 0 mm | - | 53 W/m² | - |
| 1788469333 | 35° C | 47% | 1015.5 hPa | 0 mm | - | 120 W/m² | - |
| 1788469032 | 35.56° C | 46% | 1015.4 hPa | 0 mm | - | 103 W/m² | - |
| 1788468731 | 35.56° C | 47% | 1015.5 hPa | 0 mm | - | 163 W/m² | - |
| 1788468427 | 35.56° C | 47% | 1015.5 hPa | 0 mm | - | 160 W/m² | - |
| 1788468123 | 36.11° C | 48% | 1015.6 hPa | 0 mm | - | 200 W/m² | - |
| 1788467818 | 35.56° C | 46% | 1015.7 hPa | 0 mm | - | 123 W/m² | - |
| 1788467514 | 35.56° C | 46% | 1015.6 hPa | 0 mm | - | 107 W/m² | - |
| 1788467208 | 35.56° C | 46% | 1015.6 hPa | 0 mm | - | 139 W/m² | - |
| 1788466904 | 36.11° C | 44% | 1015.7 hPa | 0 mm | - | 108 W/m² | - |
| 1788466598 | 36.11° C | 46% | 1015.9 hPa | 0 mm | - | 162 W/m² | - |
| 1788466297 | 35.56° C | 50% | 1015.7 hPa | 0 mm | - | 102 W/m² | - |
| 1788465993 | 35.56° C | 45% | 1015.9 hPa | 0 mm | - | 139 W/m² | - |
| 1788465688 | 35.56° C | 46% | 1015.9 hPa | 0 mm | - | 129 W/m² | - |
| 1788465384 | 35.56° C | 48% | 1015.9 hPa | 0 mm | - | 122 W/m² | - |
| 1788465079 | 35.56° C | 48% | 1016 hPa | 0 mm | - | 100 W/m² | - |
| 1788464775 | 35.56° C | 48% | 1016 hPa | 0 mm | - | 105 W/m² | - |
| 1788464474 | 36.67° C | 45% | 1016.2 hPa | 0 mm | - | 266 W/m² | - |
| 1788464170 | 36.11° C | 45% | 1016.3 hPa | 0 mm | - | 380 W/m² | - |
| 1788463866 | 36.11° C | 46% | 1016.3 hPa | 0 mm | - | 714 W/m² | - |
| 1788463562 | 36.67° C | 45% | 1016.2 hPa | 0 mm | - | 716 W/m² | - |
* Rain latest hour (hover to see other rain measurements)
** Current wind speed in m/s (hover to see current wind gust speed)